Location: Leimbach
(47.5611°N, 9.1881°E)
Time: 07:02:21
(UTC+00:00)

Cosmos 1758 Rocket - Pass Details

Date: 07 June 2020
Orbit: 603 x 635 km, 82.5° (Epoch: 04 July)

Event Time Altitude Azimuth Distance (km) Brightness Sun altitude
Exits shadow 00:15:27 42° 192° (SSW) 886 3.8 -18.6°
Maximum altitude 00:16:55 87° 279° (W) 628 3.5 -18.6°
Drops below altitude 10° 00:21:23 10° 9° (N) 2,009 7.4 -18.4°
Sets 00:23:38 0° 10° (N) 2,926 8.7 -18.3°
